AAL2785 KLAX-KLAS

Flight info

Callsign AAL2785
Flight time 0h 49m
Altitude 29000
Route ORCKA5 MISEN RNDRZ4
Aircraft A321/M-SDE3FGHIRWY/LB1

Departure

Time 2026-05-07 18:40
Airport Los Angeles International Airport (KLAX)

Arrival

Time 2026-05-07 19:29
Airport Harry Reid International Airport (KLAS)
Time Latitude Longitude Altitude Speed Heading
2026-05-07 17:26 33.94141 -118.40635 126 ft 0 kts 265°
2026-05-07 17:50 33.94141 -118.40634 126 ft 0 kts 265°
2026-05-07 18:17 33.94141 -118.40633 126 ft 0 kts 265°
2026-05-07 18:28 33.94141 -118.40630 121 ft 3 kts 270°
2026-05-07 18:29 33.94143 -118.40629 121 ft 4 kts 277°
2026-05-07 18:29 33.94145 -118.40599 122 ft 4 kts 245°
2026-05-07 18:29 33.94160 -118.40578 121 ft 4 kts 198°
2026-05-07 18:29 33.94179 -118.40575 122 ft 1 kts 172°
2026-05-07 18:30 33.94183 -118.40575 123 ft 1 kts 172°
2026-05-07 18:32 33.94155 -118.40571 121 ft 7 kts 172°
2026-05-07 18:33 33.94106 -118.40563 123 ft 7 kts 172°
2026-05-07 18:33 33.94044 -118.40553 123 ft 14 kts 173°
2026-05-07 18:33 33.93947 -118.40539 124 ft 14 kts 173°
2026-05-07 18:33 33.93855 -118.40527 124 ft 11 kts 173°
2026-05-07 18:34 33.93831 -118.40469 125 ft 8 kts 86°
2026-05-07 18:34 33.93839 -118.40382 123 ft 11 kts 83°
2026-05-07 18:34 33.93849 -118.40294 126 ft 11 kts 83°
2026-05-07 18:34 33.93861 -118.40176 126 ft 15 kts 83°
2026-05-07 18:35 33.93874 -118.40052 126 ft 15 kts 83°
2026-05-07 18:35 33.93890 -118.39893 126 ft 21 kts 83°
2026-05-07 18:35 33.93907 -118.39726 126 ft 20 kts 83°
2026-05-07 18:35 33.93923 -118.39566 126 ft 19 kts 83°
2026-05-07 18:36 33.93939 -118.39405 122 ft 21 kts 83°
2026-05-07 18:36 33.93957 -118.39228 124 ft 21 kts 83°
2026-05-07 18:36 33.93975 -118.39059 126 ft 20 kts 83°
2026-05-07 18:36 33.93993 -118.38882 126 ft 21 kts 83°
2026-05-07 18:37 33.94012 -118.38700 121 ft 22 kts 83°
2026-05-07 18:37 33.94030 -118.38518 126 ft 21 kts 83°
2026-05-07 18:37 33.94048 -118.38342 126 ft 22 kts 83°
2026-05-07 18:37 33.94066 -118.38166 126 ft 20 kts 83°
2026-05-07 18:38 33.94079 -118.38048 126 ft 6 kts 87°
2026-05-07 18:38 33.94078 -118.38039 126 ft 0 kts 95°
2026-05-07 18:38 33.94077 -118.38031 126 ft 5 kts 102°
2026-05-07 18:38 33.94027 -118.37997 126 ft 12 kts 173°
2026-05-07 18:39 33.93982 -118.38047 123 ft 8 kts 262°
2026-05-07 18:39 33.93981 -118.38055 124 ft 0 kts 263°
2026-05-07 18:39 33.93968 -118.38182 122 ft 47 kts 263°
2026-05-07 18:39 33.93897 -118.38849 124 ft 111 kts 263°
2026-05-07 18:40 33.93780 -118.39970 125 ft 157 kts 262°
2026-05-07 18:40 33.93639 -118.41274 769 ft 152 kts 262°
2026-05-07 18:40 33.93510 -118.42547 1424 ft 154 kts 261°
2026-05-07 18:40 33.93382 -118.43845 2031 ft 161 kts 263°
2026-05-07 18:41 33.93246 -118.45240 2352 ft 180 kts 263°
2026-05-07 18:41 33.92899 -118.46780 2580 ft 202 kts 250°
2026-05-07 18:41 33.92336 -118.48431 2762 ft 225 kts 248°
2026-05-07 18:41 33.91685 -118.50253 2979 ft 250 kts 247°
2026-05-07 18:42 33.90969 -118.52250 3504 ft 265 kts 247°
2026-05-07 18:42 33.90230 -118.54305 4240 ft 269 kts 247°
2026-05-07 18:42 33.89490 -118.56382 4999 ft 271 kts 247°
2026-05-07 18:42 33.88580 -118.58372 5693 ft 275 kts 230°
2026-05-07 18:43 33.87087 -118.59809 6375 ft 279 kts 206°
2026-05-07 18:43 33.85232 -118.60373 7028 ft 283 kts 180°
2026-05-07 18:43 33.83304 -118.59915 7679 ft 286 kts 154°
2026-05-07 18:43 33.81715 -118.58491 8342 ft 288 kts 128°
2026-05-07 18:44 33.80790 -118.56378 9031 ft 288 kts 102°
2026-05-07 18:44 33.80715 -118.53996 9747 ft 287 kts 77°
2026-05-07 18:44 33.81498 -118.51806 10409 ft 288 kts 52°
2026-05-07 18:44 33.82993 -118.50209 11011 ft 294 kts 31°
2026-05-07 18:45 33.84845 -118.48958 11160 ft 316 kts 28°
2026-05-07 18:45 33.86817 -118.47704 11421 ft 331 kts 28°
2026-05-07 18:45 33.88885 -118.46416 11987 ft 337 kts 28°
2026-05-07 18:45 33.90971 -118.45105 12630 ft 339 kts 30°
2026-05-07 18:46 33.92885 -118.43437 13274 ft 342 kts 43°
2026-05-07 18:46 33.94448 -118.41280 13944 ft 344 kts 55°
2026-05-07 18:46 33.95796 -118.38888 14538 ft 346 kts 55°
2026-05-07 18:46 33.97154 -118.36482 15119 ft 348 kts 55°
2026-05-07 18:47 33.98523 -118.34064 15701 ft 351 kts 55°
2026-05-07 18:47 33.99902 -118.31633 16279 ft 353 kts 55°
2026-05-07 18:47 34.01290 -118.29183 16845 ft 355 kts 55°
2026-05-07 18:47 34.02670 -118.26751 17405 ft 357 kts 55°
2026-05-07 18:48 34.04077 -118.24273 17953 ft 359 kts 55°
2026-05-07 18:48 34.05494 -118.21777 18488 ft 362 kts 55°
2026-05-07 18:48 34.06917 -118.19262 18920 ft 364 kts 55°
2026-05-07 18:48 34.08348 -118.16726 19379 ft 367 kts 55°
2026-05-07 18:49 34.09786 -118.14175 19820 ft 370 kts 55°
2026-05-07 18:49 34.11238 -118.11601 20242 ft 372 kts 55°
2026-05-07 18:49 34.12702 -118.09009 20658 ft 375 kts 55°
2026-05-07 18:49 34.14157 -118.06436 21057 ft 377 kts 55°
2026-05-07 18:50 34.15641 -118.03808 21447 ft 380 kts 55°
2026-05-07 18:50 34.17131 -118.01165 21833 ft 382 kts 55°
2026-05-07 18:50 34.18632 -117.98499 22211 ft 385 kts 55°
2026-05-07 18:50 34.20138 -117.95818 22573 ft 387 kts 55°
2026-05-07 18:51 34.21654 -117.93117 22946 ft 389 kts 54°
2026-05-07 18:51 34.23178 -117.90403 23297 ft 392 kts 55°
2026-05-07 18:51 34.24712 -117.87669 23675 ft 394 kts 54°
2026-05-07 18:51 34.26255 -117.84923 23994 ft 396 kts 55°
2026-05-07 18:52 34.27807 -117.82160 24311 ft 398 kts 55°
2026-05-07 18:52 34.29340 -117.79425 24623 ft 400 kts 55°
2026-05-07 18:52 34.30903 -117.76631 24966 ft 402 kts 55°
2026-05-07 18:52 34.32468 -117.73822 25302 ft 404 kts 55°
2026-05-07 18:53 34.34042 -117.70995 25648 ft 406 kts 55°
2026-05-07 18:53 34.35628 -117.68157 25965 ft 408 kts 54°
2026-05-07 18:53 34.37263 -117.65338 26299 ft 410 kts 53°
2026-05-07 18:53 34.38938 -117.62539 26628 ft 412 kts 53°
2026-05-07 18:54 34.40639 -117.59736 26980 ft 414 kts 53°
2026-05-07 18:54 34.42326 -117.56964 27305 ft 416 kts 53°
2026-05-07 18:54 34.44040 -117.54133 27627 ft 418 kts 53°
2026-05-07 18:54 34.45755 -117.51280 27947 ft 420 kts 53°
2026-05-07 18:55 34.47469 -117.48408 28262 ft 422 kts 53°
2026-05-07 18:55 34.49189 -117.45515 28575 ft 424 kts 53°
2026-05-07 18:55 34.50912 -117.42605 28882 ft 426 kts 53°
2026-05-07 18:55 34.52642 -117.39679 29101 ft 427 kts 53°
2026-05-07 18:56 34.54355 -117.36784 29149 ft 416 kts 53°
2026-05-07 18:56 34.57677 -117.31178 29147 ft 406 kts 53°
2026-05-07 18:57 34.60943 -117.25657 29139 ft 405 kts 53°
2026-05-07 18:57 34.64228 -117.20102 29110 ft 405 kts 53°
2026-05-07 18:58 34.67508 -117.14543 29085 ft 405 kts 53°
2026-05-07 18:58 34.70783 -117.08987 29046 ft 404 kts 53°
2026-05-07 18:59 34.73978 -117.03557 29029 ft 390 kts 53°
2026-05-07 18:59 34.77101 -116.98231 29039 ft 378 kts 53°
2026-05-07 19:00 34.80077 -116.93147 29051 ft 365 kts 53°
2026-05-07 19:00 34.83019 -116.88136 29059 ft 360 kts 53°
2026-05-07 19:00 34.84444 -116.85704 29062 ft 346 kts 52°
2026-05-07 19:01 34.85810 -116.83367 29063 ft 342 kts 52°
2026-05-07 19:01 34.88550 -116.78672 29026 ft 340 kts 52°
2026-05-07 19:01 34.89921 -116.76317 28690 ft 340 kts 53°
2026-05-07 19:02 34.91284 -116.73968 28431 ft 340 kts 53°
2026-05-07 19:02 34.92630 -116.71640 28671 ft 329 kts 53°
2026-05-07 19:02 34.93944 -116.69339 28988 ft 334 kts 53°
2026-05-07 19:03 34.96611 -116.64630 28968 ft 341 kts 53°
2026-05-07 19:03 34.97971 -116.62219 28735 ft 357 kts 53°
2026-05-07 19:03 34.99402 -116.59680 28648 ft 370 kts 53°
2026-05-07 19:03 35.00886 -116.57041 28428 ft 385 kts 53°
2026-05-07 19:04 35.02415 -116.54319 28157 ft 392 kts 53°
2026-05-07 19:04 35.03957 -116.51569 27910 ft 393 kts 53°
2026-05-07 19:04 35.05499 -116.48820 27653 ft 392 kts 53°
2026-05-07 19:04 35.07038 -116.46079 27398 ft 391 kts 53°
2026-05-07 19:05 35.08569 -116.43351 27146 ft 389 kts 53°
2026-05-07 19:05 35.10098 -116.40688 26898 ft 387 kts 50°
2026-05-07 19:05 35.11882 -116.38254 26650 ft 384 kts 45°
2026-05-07 19:05 35.13717 -116.35895 26402 ft 382 kts 45°
2026-05-07 19:06 35.15541 -116.33542 26156 ft 381 kts 45°
2026-05-07 19:06 35.18556 -116.29635 25749 ft 379 kts 45°
2026-05-07 19:06 35.20363 -116.27291 25508 ft 378 kts 45°
2026-05-07 19:07 35.22164 -116.24956 25267 ft 377 kts 45°
2026-05-07 19:07 35.24487 -116.21894 24796 ft 366 kts 46°
2026-05-07 19:07 35.26172 -116.19597 24380 ft 360 kts 47°
2026-05-07 19:07 35.27822 -116.17315 23955 ft 356 kts 47°
2026-05-07 19:08 35.29448 -116.15057 23520 ft 352 kts 47°
2026-05-07 19:08 35.30518 -116.13573 23202 ft 349 kts 47°
2026-05-07 19:08 35.32117 -116.11365 22768 ft 344 kts 47°
2026-05-07 19:08 35.33696 -116.09194 22357 ft 339 kts 46°
2026-05-07 19:09 35.35256 -116.07055 21933 ft 334 kts 46°
2026-05-07 19:09 35.36795 -116.04943 21528 ft 331 kts 46°
2026-05-07 19:09 35.38815 -116.02168 20978 ft 328 kts 47°
2026-05-07 19:09 35.39839 -116.00760 20699 ft 327 kts 47°
2026-05-07 19:10 35.41346 -115.98685 20279 ft 325 kts 47°
2026-05-07 19:10 35.42842 -115.96622 19860 ft 323 kts 47°
2026-05-07 19:10 35.44310 -115.94594 19463 ft 321 kts 47°
2026-05-07 19:10 35.45789 -115.92553 19053 ft 319 kts 47°
2026-05-07 19:11 35.47265 -115.90522 18631 ft 318 kts 47°
2026-05-07 19:11 35.48734 -115.88506 18224 ft 316 kts 47°
2026-05-07 19:11 35.50193 -115.86500 17756 ft 314 kts 47°
2026-05-07 19:11 35.51640 -115.84500 17290 ft 313 kts 47°
2026-05-07 19:12 35.53079 -115.82509 16823 ft 311 kts 47°
2026-05-07 19:12 35.54510 -115.80525 16383 ft 309 kts 48°
2026-05-07 19:12 35.55931 -115.78550 15939 ft 308 kts 48°
2026-05-07 19:12 35.57326 -115.76607 15504 ft 307 kts 48°
2026-05-07 19:13 35.58735 -115.74647 15075 ft 306 kts 48°
2026-05-07 19:13 35.60146 -115.72699 14654 ft 304 kts 48°
2026-05-07 19:13 35.61565 -115.70778 14231 ft 303 kts 47°
2026-05-07 19:13 35.62986 -115.68870 13810 ft 302 kts 47°
2026-05-07 19:14 35.64403 -115.66969 13347 ft 301 kts 47°
2026-05-07 19:14 35.65815 -115.65072 12891 ft 300 kts 47°
2026-05-07 19:14 35.67221 -115.63173 12433 ft 300 kts 47°
2026-05-07 19:14 35.68621 -115.61281 11980 ft 295 kts 47°
2026-05-07 19:15 35.69997 -115.59420 11639 ft 293 kts 47°
2026-05-07 19:15 35.71354 -115.57587 11405 ft 296 kts 47°
2026-05-07 19:15 35.72793 -115.55796 11160 ft 293 kts 38°
2026-05-07 19:15 35.74483 -115.54414 10922 ft 291 kts 28°
2026-05-07 19:16 35.76246 -115.53186 10679 ft 291 kts 29°
2026-05-07 19:16 35.78000 -115.51958 10451 ft 290 kts 28°
2026-05-07 19:16 35.79753 -115.50728 10226 ft 290 kts 28°
2026-05-07 19:16 35.81501 -115.49499 9990 ft 289 kts 28°
2026-05-07 19:17 35.83244 -115.48275 9958 ft 288 kts 28°
2026-05-07 19:17 35.84985 -115.47051 9959 ft 288 kts 28°
2026-05-07 19:17 35.86706 -115.45843 10008 ft 287 kts 28°
2026-05-07 19:17 35.88452 -115.44619 10194 ft 290 kts 28°
2026-05-07 19:18 35.90206 -115.43391 10358 ft 290 kts 28°
2026-05-07 19:18 35.91960 -115.42164 10562 ft 291 kts 28°
2026-05-07 19:18 35.93724 -115.40931 10776 ft 292 kts 28°
2026-05-07 19:18 35.95493 -115.39699 10951 ft 293 kts 28°
2026-05-07 19:19 35.97263 -115.38466 11005 ft 288 kts 28°
2026-05-07 19:19 35.98930 -115.37225 11010 ft 274 kts 36°
2026-05-07 19:19 36.00235 -115.35577 11037 ft 273 kts 52°
2026-05-07 19:19 36.01102 -115.33490 10946 ft 276 kts 70°
2026-05-07 19:20 36.01417 -115.31156 10660 ft 277 kts 88°
2026-05-07 19:20 36.01301 -115.28780 10444 ft 277 kts 92°
2026-05-07 19:20 36.01177 -115.26410 10225 ft 277 kts 92°
2026-05-07 19:20 36.01059 -115.24042 9995 ft 275 kts 91°
2026-05-07 19:21 36.00945 -115.21683 9755 ft 275 kts 92°
2026-05-07 19:21 36.00829 -115.19332 9537 ft 274 kts 92°
2026-05-07 19:21 36.00711 -115.16993 9311 ft 271 kts 92°
2026-05-07 19:21 36.00596 -115.14715 8980 ft 263 kts 92°
2026-05-07 19:22 36.00485 -115.12521 8885 ft 256 kts 91°
2026-05-07 19:22 36.00374 -115.10313 9016 ft 260 kts 92°
2026-05-07 19:22 36.00261 -115.08085 8764 ft 259 kts 92°
2026-05-07 19:22 36.00149 -115.05881 8506 ft 254 kts 92°
2026-05-07 19:23 36.00041 -115.03741 8288 ft 247 kts 92°
2026-05-07 19:23 35.99934 -115.01636 8049 ft 245 kts 92°
2026-05-07 19:23 35.99868 -114.99538 7768 ft 244 kts 90°
2026-05-07 19:23 35.99851 -114.97452 7410 ft 242 kts 89°
2026-05-07 19:24 35.99849 -114.95401 7118 ft 236 kts 89°
2026-05-07 19:24 36.00001 -114.93451 6824 ft 228 kts 70°
2026-05-07 19:24 36.00809 -114.91808 6541 ft 224 kts 45°
2026-05-07 19:24 36.02054 -114.90692 6226 ft 222 kts 25°
2026-05-07 19:25 36.03534 -114.90244 5917 ft 220 kts
2026-05-07 19:25 36.05036 -114.90545 5439 ft 220 kts 338°
2026-05-07 19:25 36.06272 -114.91555 5205 ft 208 kts 315°
2026-05-07 19:25 36.07059 -114.93000 5024 ft 201 kts 294°
2026-05-07 19:26 36.07358 -114.94666 4806 ft 199 kts 272°
2026-05-07 19:26 36.07361 -114.96348 4590 ft 191 kts 270°
2026-05-07 19:26 36.07362 -114.97941 4349 ft 179 kts 270°
2026-05-07 19:26 36.07363 -114.99420 4135 ft 167 kts 270°
2026-05-07 19:27 36.07364 -115.00819 3934 ft 163 kts 270°
2026-05-07 19:27 36.07365 -115.02217 3727 ft 162 kts 270°
2026-05-07 19:27 36.07366 -115.03613 3521 ft 162 kts 270°
2026-05-07 19:27 36.07366 -115.05005 3320 ft 162 kts 270°
2026-05-07 19:28 36.07366 -115.06399 3116 ft 162 kts 270°
2026-05-07 19:28 36.07366 -115.07785 2894 ft 162 kts 270°
2026-05-07 19:28 36.07366 -115.09169 2677 ft 161 kts 271°
2026-05-07 19:28 36.07363 -115.10544 2482 ft 159 kts 270°
2026-05-07 19:29 36.07364 -115.11912 2371 ft 160 kts 271°
2026-05-07 19:29 36.07364 -115.13267 2197 ft 159 kts 270°
2026-05-07 19:29 36.07367 -115.14447 2192 ft 99 kts 270°
2026-05-07 19:29 36.07366 -115.14967 2189 ft 44 kts 270°
2026-05-07 19:30 36.07373 -115.15247 2188 ft 23 kts 284°
2026-05-07 19:30 36.07410 -115.15373 2192 ft 11 kts 294°
2026-05-07 19:30 36.07442 -115.15451 2190 ft 10 kts 298°
2026-05-07 19:30 36.07479 -115.15531 2190 ft 14 kts 302°
2026-05-07 19:31 36.07537 -115.15621 2189 ft 12 kts 314°
2026-05-07 19:31 36.07606 -115.15706 2190 ft 17 kts 315°
2026-05-07 19:31 36.07691 -115.15804 2192 ft 15 kts 323°
2026-05-07 19:31 36.07789 -115.15805 2190 ft 16 kts 43°
2026-05-07 19:32 36.07806 -115.15678 2188 ft 16 kts 91°
2026-05-07 19:32 36.07806 -115.15557 2188 ft 13 kts 91°
2026-05-07 19:32 36.07805 -115.15451 2189 ft 12 kts 90°
2026-05-07 19:32 36.07804 -115.15344 2189 ft 12 kts 90°
2026-05-07 19:33 36.07809 -115.15249 2190 ft 9 kts 69°
2026-05-07 19:33 36.07863 -115.15205 2188 ft 9 kts 12°
2026-05-07 19:33 36.07933 -115.15205 2188 ft 10 kts